Year,Month,Day,Hour,Minute,Value (Times are PST for temperature in C)
2008,07,02,00,00,14.30
2008,07,02,00,01,14.30
2008,07,02,00,02,14.30
2008,07,02,00,03,14.20
2008,07,02,00,04,14.20
2008,07,02,00,05,14.20
2008,07,02,00,06,14.20
2008,07,02,00,07,14.20
2008,07,02,00,08,14.10
2008,07,02,00,09,14.10
2008,07,02,00,10,14.10
2008,07,02,00,11,14.10
2008,07,02,00,12,14.10
2008,07,02,00,13,14.00
2008,07,02,00,14,14.00
2008,07,02,00,15,14.00
2008,07,02,00,16,13.90
2008,07,02,00,17,13.90
2008,07,02,00,18,13.90
2008,07,02,00,19,13.90
2008,07,02,00,20,13.90
2008,07,02,00,21,13.90
2008,07,02,00,22,13.90
2008,07,02,00,23,13.80
2008,07,02,00,24,13.80
2008,07,02,00,25,13.80
2008,07,02,00,26,13.80
2008,07,02,00,27,13.80
2008,07,02,00,28,13.80
2008,07,02,00,29,13.80
2008,07,02,00,30,13.70
2008,07,02,00,31,13.70
2008,07,02,00,32,13.70
2008,07,02,00,33,13.70
2008,07,02,00,34,13.70
2008,07,02,00,35,13.70
2008,07,02,00,36,13.70
2008,07,02,00,37,13.70
2008,07,02,00,38,13.70
2008,07,02,00,39,13.70
2008,07,02,00,40,13.60
2008,07,02,00,41,13.60
2008,07,02,00,42,13.60
2008,07,02,00,43,13.60
2008,07,02,00,44,13.60
2008,07,02,00,45,13.60
2008,07,02,00,46,13.60
2008,07,02,00,47,13.50
2008,07,02,00,48,13.50
2008,07,02,00,49,13.50
2008,07,02,00,50,13.50
2008,07,02,00,51,13.50
2008,07,02,00,52,13.40
2008,07,02,00,53,13.40
2008,07,02,00,54,13.40
2008,07,02,00,55,13.40
2008,07,02,00,56,13.40
2008,07,02,00,57,13.40
2008,07,02,00,58,13.40
2008,07,02,00,59,13.40
2008,07,02,01,00,13.40
2008,07,02,01,01,13.40
2008,07,02,01,02,13.30
2008,07,02,01,03,13.30
2008,07,02,01,04,13.30
2008,07,02,01,05,13.30
2008,07,02,01,06,13.30
2008,07,02,01,07,13.30
2008,07,02,01,08,13.30
2008,07,02,01,09,13.30
2008,07,02,01,10,13.30
2008,07,02,01,11,13.30
2008,07,02,01,12,13.20
2008,07,02,01,13,13.20
2008,07,02,01,14,13.20
2008,07,02,01,15,13.20
2008,07,02,01,16,13.20
2008,07,02,01,17,13.20
2008,07,02,01,18,13.20
2008,07,02,01,19,13.20
2008,07,02,01,20,13.20
2008,07,02,01,21,13.20
2008,07,02,01,22,13.20
2008,07,02,01,23,13.20
2008,07,02,01,24,13.20
2008,07,02,01,25,13.20
2008,07,02,01,26,13.20
2008,07,02,01,27,13.20
2008,07,02,01,28,13.10
2008,07,02,01,29,13.20
2008,07,02,01,30,13.10
2008,07,02,01,31,13.10
2008,07,02,01,32,13.10
2008,07,02,01,33,13.10
2008,07,02,01,34,13.10
2008,07,02,01,35,13.10
2008,07,02,01,36,13.10
2008,07,02,01,37,13.10
2008,07,02,01,38,13.10
2008,07,02,01,39,13.10
2008,07,02,01,40,13.00
2008,07,02,01,41,13.00
2008,07,02,01,42,13.00
2008,07,02,01,43,13.00
2008,07,02,01,44,13.00
2008,07,02,01,45,13.00
2008,07,02,01,46,13.00
2008,07,02,01,47,13.00
2008,07,02,01,48,13.00
2008,07,02,01,49,13.00
2008,07,02,01,50,13.00
2008,07,02,01,51,13.00
2008,07,02,01,52,13.00
2008,07,02,01,53,12.90
2008,07,02,01,54,12.90
2008,07,02,01,55,12.90
2008,07,02,01,56,12.90
2008,07,02,01,57,12.90
2008,07,02,01,58,12.90
2008,07,02,01,59,12.90
2008,07,02,02,00,12.90
2008,07,02,02,01,12.90
2008,07,02,02,02,12.90
2008,07,02,02,03,12.90
2008,07,02,02,04,12.90
2008,07,02,02,05,12.90
2008,07,02,02,06,12.90
2008,07,02,02,07,12.80
2008,07,02,02,08,12.80
2008,07,02,02,09,12.80
2008,07,02,02,10,12.80
2008,07,02,02,11,12.80
2008,07,02,02,12,12.80
2008,07,02,02,13,12.80
2008,07,02,02,14,12.80
2008,07,02,02,15,12.80
2008,07,02,02,16,12.80
2008,07,02,02,17,12.80
2008,07,02,02,18,12.80
2008,07,02,02,19,12.70
2008,07,02,02,20,12.70
2008,07,02,02,21,12.70
2008,07,02,02,22,12.70
2008,07,02,02,23,12.70
2008,07,02,02,24,12.70
2008,07,02,02,25,12.70
2008,07,02,02,26,12.70
2008,07,02,02,27,12.60
2008,07,02,02,28,12.60
2008,07,02,02,29,12.60
2008,07,02,02,30,12.60
2008,07,02,02,31,12.60
2008,07,02,02,32,12.60
2008,07,02,02,33,12.60
2008,07,02,02,34,12.60
2008,07,02,02,35,12.60
2008,07,02,02,36,12.60
2008,07,02,02,37,12.50
2008,07,02,02,38,12.50
2008,07,02,02,39,12.50
2008,07,02,02,40,12.50
2008,07,02,02,41,12.50
2008,07,02,02,42,12.40
2008,07,02,02,43,12.40
2008,07,02,02,44,12.40
2008,07,02,02,45,12.40
2008,07,02,02,46,12.40
2008,07,02,02,47,12.40
2008,07,02,02,48,12.40
2008,07,02,02,49,12.40
2008,07,02,02,50,12.40
2008,07,02,02,51,12.40
2008,07,02,02,52,12.40
2008,07,02,02,53,12.40
2008,07,02,02,54,12.40
2008,07,02,02,55,12.40
2008,07,02,02,56,12.40
2008,07,02,02,57,12.40
2008,07,02,02,58,12.40
2008,07,02,02,59,12.40
2008,07,02,03,00,12.40
2008,07,02,03,01,12.40
2008,07,02,03,02,12.40
2008,07,02,03,03,12.40
2008,07,02,03,04,12.40
2008,07,02,03,05,12.30
2008,07,02,03,06,12.30
2008,07,02,03,07,12.30
2008,07,02,03,08,12.30
2008,07,02,03,09,12.30
2008,07,02,03,10,12.30
2008,07,02,03,11,12.30
2008,07,02,03,12,12.30
2008,07,02,03,13,12.30
2008,07,02,03,14,12.30
2008,07,02,03,15,12.30
2008,07,02,03,16,12.30
2008,07,02,03,17,12.30
2008,07,02,03,18,12.30
2008,07,02,03,19,12.30
2008,07,02,03,20,12.30
2008,07,02,03,21,12.20
2008,07,02,03,22,12.20
2008,07,02,03,23,12.20
2008,07,02,03,24,12.20
2008,07,02,03,25,12.20
2008,07,02,03,26,12.20
2008,07,02,03,27,12.20
2008,07,02,03,28,12.10
2008,07,02,03,29,12.10
2008,07,02,03,30,12.10
2008,07,02,03,31,12.10
2008,07,02,03,32,12.10
2008,07,02,03,33,12.10
2008,07,02,03,34,12.10
2008,07,02,03,35,12.10
2008,07,02,03,36,12.10
2008,07,02,03,37,12.10
2008,07,02,03,38,12.10
2008,07,02,03,39,12.10
2008,07,02,03,40,12.10
2008,07,02,03,41,12.10
2008,07,02,03,42,12.10
2008,07,02,03,43,12.10
2008,07,02,03,44,12.10
2008,07,02,03,45,12.10
2008,07,02,03,46,12.10
2008,07,02,03,47,12.10
2008,07,02,03,48,12.10
2008,07,02,03,49,12.10
2008,07,02,03,50,12.10
2008,07,02,03,51,12.10
2008,07,02,03,52,12.10
2008,07,02,03,53,12.10
2008,07,02,03,54,12.10
2008,07,02,03,55,12.00
2008,07,02,03,56,12.00
2008,07,02,03,57,12.00
2008,07,02,03,58,12.00
2008,07,02,03,59,12.00
2008,07,02,04,00,12.00
2008,07,02,04,01,11.90
2008,07,02,04,02,11.90
2008,07,02,04,03,11.90
2008,07,02,04,04,11.90
2008,07,02,04,05,11.90
2008,07,02,04,06,11.90
2008,07,02,04,07,11.90
2008,07,02,04,08,11.90
2008,07,02,04,09,11.90
2008,07,02,04,10,11.90
2008,07,02,04,11,11.90
2008,07,02,04,12,11.90
2008,07,02,04,13,11.90
2008,07,02,04,14,11.90
2008,07,02,04,15,11.90
2008,07,02,04,16,11.90
2008,07,02,04,17,11.90
2008,07,02,04,18,11.90
2008,07,02,04,19,11.90
2008,07,02,04,20,11.90
2008,07,02,04,21,11.90
2008,07,02,04,22,11.90
2008,07,02,04,23,11.90
2008,07,02,04,24,11.90
2008,07,02,04,25,11.90
2008,07,02,04,26,11.90
2008,07,02,04,27,11.90
2008,07,02,04,28,11.80
2008,07,02,04,29,11.80
2008,07,02,04,30,11.80
2008,07,02,04,31,11.80
2008,07,02,04,32,11.80
2008,07,02,04,33,11.80
2008,07,02,04,34,11.80
2008,07,02,04,35,11.80
2008,07,02,04,36,11.80
2008,07,02,04,37,11.80
2008,07,02,04,38,11.80
2008,07,02,04,39,11.80
2008,07,02,04,40,11.80
2008,07,02,04,41,11.80
2008,07,02,04,42,11.70
2008,07,02,04,43,11.80
2008,07,02,04,44,11.80
2008,07,02,04,45,11.80
2008,07,02,04,46,11.80
2008,07,02,04,47,11.80
2008,07,02,04,48,11.80
2008,07,02,04,49,11.80
2008,07,02,04,50,11.80
2008,07,02,04,51,11.80
2008,07,02,04,52,11.80
2008,07,02,04,53,11.80
2008,07,02,04,54,11.80
2008,07,02,04,55,11.80
2008,07,02,04,56,11.80
2008,07,02,04,57,11.80
2008,07,02,04,58,11.80
2008,07,02,04,59,11.80
2008,07,02,05,00,11.80
2008,07,02,05,01,11.80
2008,07,02,05,02,11.80
2008,07,02,05,03,11.80
2008,07,02,05,04,11.80
2008,07,02,05,05,11.80
2008,07,02,05,06,11.80
2008,07,02,05,07,11.80
2008,07,02,05,08,11.80
2008,07,02,05,09,11.80
2008,07,02,05,10,11.80
2008,07,02,05,11,11.80
2008,07,02,05,12,11.80
2008,07,02,05,13,11.80
2008,07,02,05,14,11.80
2008,07,02,05,15,11.80
2008,07,02,05,16,11.80
2008,07,02,05,17,11.80
2008,07,02,05,18,11.80
2008,07,02,05,19,11.80
2008,07,02,05,20,11.80
2008,07,02,05,21,11.80
2008,07,02,05,22,11.90
2008,07,02,05,23,11.90
2008,07,02,05,24,11.90
2008,07,02,05,25,11.90
2008,07,02,05,26,11.90
2008,07,02,05,27,11.90
2008,07,02,05,28,11.90
2008,07,02,05,29,11.90
2008,07,02,05,30,11.90
2008,07,02,05,31,11.90
2008,07,02,05,32,11.90
2008,07,02,05,33,11.90
2008,07,02,05,34,11.90
2008,07,02,05,35,11.90
2008,07,02,05,36,11.90
2008,07,02,05,37,12.00
2008,07,02,05,38,12.00
2008,07,02,05,39,12.00
2008,07,02,05,40,12.00
2008,07,02,05,41,12.00
2008,07,02,05,42,12.00
2008,07,02,05,43,12.00
2008,07,02,05,44,12.10
2008,07,02,05,45,12.10
2008,07,02,05,46,12.10
2008,07,02,05,47,12.10
2008,07,02,05,48,12.10
2008,07,02,05,49,12.10
2008,07,02,05,50,12.10
2008,07,02,05,51,12.10
2008,07,02,05,52,12.10
2008,07,02,05,53,12.10
2008,07,02,05,54,12.20
2008,07,02,05,55,12.20
2008,07,02,05,56,12.20
2008,07,02,05,57,12.20
2008,07,02,05,58,12.20
2008,07,02,05,59,12.20
2008,07,02,06,00,12.20
2008,07,02,06,01,12.20
2008,07,02,06,02,12.20
2008,07,02,06,03,12.20
2008,07,02,06,04,12.20
2008,07,02,06,05,12.20
2008,07,02,06,06,12.20
2008,07,02,06,07,12.20
2008,07,02,06,08,12.20
2008,07,02,06,09,12.20
2008,07,02,06,10,12.30
2008,07,02,06,11,12.30
2008,07,02,06,12,12.30
2008,07,02,06,13,12.30
2008,07,02,06,14,12.30
2008,07,02,06,15,12.30
2008,07,02,06,16,12.30
2008,07,02,06,17,12.30
2008,07,02,06,18,12.30
2008,07,02,06,19,12.30
2008,07,02,06,20,12.40
2008,07,02,06,21,12.40
2008,07,02,06,22,12.40
2008,07,02,06,23,12.40
2008,07,02,06,24,12.40
2008,07,02,06,25,12.40
2008,07,02,06,26,12.50
2008,07,02,06,27,12.50
2008,07,02,06,28,12.50
2008,07,02,06,29,12.60
2008,07,02,06,30,12.60
2008,07,02,06,31,12.60
2008,07,02,06,32,12.70
2008,07,02,06,33,12.70
2008,07,02,06,34,12.70
2008,07,02,06,35,12.80
2008,07,02,06,36,12.80
2008,07,02,06,37,12.80
2008,07,02,06,38,12.80
2008,07,02,06,39,12.80
2008,07,02,06,40,12.90
2008,07,02,06,41,12.90
2008,07,02,06,42,12.90
2008,07,02,06,43,12.90
2008,07,02,06,44,12.90
2008,07,02,06,45,13.00
2008,07,02,06,46,13.00
2008,07,02,06,47,13.00
2008,07,02,06,48,13.10
2008,07,02,06,49,13.10
2008,07,02,06,50,13.10
2008,07,02,06,51,13.10
2008,07,02,06,52,13.10
2008,07,02,06,53,13.20
2008,07,02,06,54,13.20
2008,07,02,06,55,13.20
2008,07,02,06,56,13.20
2008,07,02,06,57,13.30
2008,07,02,06,58,13.30
2008,07,02,06,59,13.30
2008,07,02,07,00,13.40
2008,07,02,07,01,13.40
2008,07,02,07,02,13.40
2008,07,02,07,03,13.40
2008,07,02,07,04,13.50
2008,07,02,07,05,13.50
2008,07,02,07,06,13.50
2008,07,02,07,07,13.60
2008,07,02,07,08,13.60
2008,07,02,07,09,13.60
2008,07,02,07,10,13.70
2008,07,02,07,11,13.70
2008,07,02,07,12,13.70
2008,07,02,07,13,13.70
2008,07,02,07,14,13.80
2008,07,02,07,15,13.80
2008,07,02,07,16,13.80
2008,07,02,07,17,13.90
2008,07,02,07,18,13.90
2008,07,02,07,19,13.90
2008,07,02,07,20,14.00
2008,07,02,07,21,14.00
2008,07,02,07,22,14.00
2008,07,02,07,23,14.10
2008,07,02,07,24,14.10
2008,07,02,07,25,14.20
2008,07,02,07,26,14.30
2008,07,02,07,27,14.40
2008,07,02,07,28,14.50
2008,07,02,07,29,14.60
2008,07,02,07,30,14.70
2008,07,02,07,31,14.80
2008,07,02,07,32,15.00
2008,07,02,07,33,15.00
2008,07,02,07,34,15.00
2008,07,02,07,35,15.20
2008,07,02,07,36,15.30
2008,07,02,07,37,15.40
2008,07,02,07,38,15.60
2008,07,02,07,39,15.70
2008,07,02,07,40,15.80
2008,07,02,07,41,16.00
2008,07,02,07,42,16.10
2008,07,02,07,43,16.20
2008,07,02,07,44,16.30
2008,07,02,07,45,16.40
2008,07,02,07,46,16.50
2008,07,02,07,47,16.60
2008,07,02,07,48,16.70
2008,07,02,07,49,16.80
2008,07,02,07,50,16.90
2008,07,02,07,51,17.00
2008,07,02,07,52,17.20
2008,07,02,07,53,17.30
2008,07,02,07,54,17.40
2008,07,02,07,55,17.50
2008,07,02,07,56,17.50
2008,07,02,07,57,17.60
2008,07,02,07,58,17.70
2008,07,02,07,59,17.80
2008,07,02,08,00,17.80
2008,07,02,08,01,17.90
2008,07,02,08,02,18.00
2008,07,02,08,03,18.00
2008,07,02,08,04,18.10
2008,07,02,08,05,18.20
2008,07,02,08,06,18.20
2008,07,02,08,07,18.30
2008,07,02,08,08,18.30
2008,07,02,08,09,18.30
2008,07,02,08,10,18.40
2008,07,02,08,11,18.50
2008,07,02,08,12,18.50
2008,07,02,08,13,18.60
2008,07,02,08,14,18.60
2008,07,02,08,15,18.70
2008,07,02,08,16,18.70
2008,07,02,08,17,18.80
2008,07,02,08,18,18.90
2008,07,02,08,19,18.90
2008,07,02,08,20,19.00
2008,07,02,08,21,19.00
2008,07,02,08,22,19.10
2008,07,02,08,23,19.20
2008,07,02,08,24,19.20
2008,07,02,08,25,19.30
2008,07,02,08,26,19.30
2008,07,02,08,27,19.30
2008,07,02,08,28,19.40
2008,07,02,08,29,19.40
2008,07,02,08,30,19.40
2008,07,02,08,31,19.50
2008,07,02,08,32,19.50
2008,07,02,08,33,19.60
2008,07,02,08,34,19.70
2008,07,02,08,35,19.70
2008,07,02,08,36,19.70
2008,07,02,08,37,19.70
2008,07,02,08,38,19.80
2008,07,02,08,39,19.80
2008,07,02,08,40,19.80
2008,07,02,08,41,19.80
2008,07,02,08,42,19.80
2008,07,02,08,43,19.90
2008,07,02,08,44,20.00
2008,07,02,08,45,20.00
2008,07,02,08,46,20.00
2008,07,02,08,47,20.00
2008,07,02,08,48,20.10
2008,07,02,08,49,20.00
2008,07,02,08,50,19.90
2008,07,02,08,51,19.90
2008,07,02,08,52,19.90
2008,07,02,08,53,19.80
2008,07,02,08,54,19.90
2008,07,02,08,55,19.90
2008,07,02,08,56,19.80
2008,07,02,08,57,19.70
2008,07,02,08,58,19.70
2008,07,02,08,59,19.70
2008,07,02,09,00,19.70
2008,07,02,09,01,19.80
2008,07,02,09,02,19.80
2008,07,02,09,03,19.90
2008,07,02,09,04,20.00
2008,07,02,09,05,20.00
2008,07,02,09,06,20.10
2008,07,02,09,07,20.20
2008,07,02,09,08,20.20
2008,07,02,09,09,20.10
2008,07,02,09,10,20.10
2008,07,02,09,11,20.00
2008,07,02,09,12,20.00
2008,07,02,09,13,20.00
2008,07,02,09,14,20.00
2008,07,02,09,15,19.90
2008,07,02,09,16,19.80
2008,07,02,09,17,19.80
2008,07,02,09,18,19.90
2008,07,02,09,19,20.00
2008,07,02,09,20,20.00
2008,07,02,09,21,20.10
2008,07,02,09,22,20.20
2008,07,02,09,23,20.30
2008,07,02,09,24,20.30
2008,07,02,09,25,20.40
2008,07,02,09,26,20.40
2008,07,02,09,27,20.40
2008,07,02,09,28,20.40
2008,07,02,09,29,20.40
2008,07,02,09,30,20.30
2008,07,02,09,31,20.30
2008,07,02,09,32,20.20
2008,07,02,09,33,20.20
2008,07,02,09,34,20.10
2008,07,02,09,35,20.10
2008,07,02,09,36,20.10
2008,07,02,09,37,20.10
2008,07,02,09,38,20.10
2008,07,02,09,39,20.10
2008,07,02,09,40,20.20
2008,07,02,09,41,20.30
2008,07,02,09,42,20.40
2008,07,02,09,43,20.50
2008,07,02,09,44,20.60
2008,07,02,09,45,20.60
2008,07,02,09,46,20.70
2008,07,02,09,47,20.70
2008,07,02,09,48,20.80
2008,07,02,09,49,20.80
2008,07,02,09,50,20.90
2008,07,02,09,51,20.90
2008,07,02,09,52,21.00
2008,07,02,09,53,21.00
2008,07,02,09,54,21.10
2008,07,02,09,55,21.20
2008,07,02,09,56,21.30
2008,07,02,09,57,21.40
2008,07,02,09,58,21.50
2008,07,02,09,59,21.60
2008,07,02,10,00,21.60
2008,07,02,10,01,21.70
2008,07,02,10,02,21.80
2008,07,02,10,03,21.90
2008,07,02,10,04,22.00
2008,07,02,10,05,22.10
2008,07,02,10,06,22.20
2008,07,02,10,07,22.20
2008,07,02,10,08,22.20
2008,07,02,10,09,22.20
2008,07,02,10,10,22.20
2008,07,02,10,11,22.30
2008,07,02,10,12,22.40
2008,07,02,10,13,22.40
2008,07,02,10,14,22.40
2008,07,02,10,15,22.40
2008,07,02,10,16,22.30
2008,07,02,10,17,22.10
2008,07,02,10,18,22.00
2008,07,02,10,19,21.90
2008,07,02,10,20,21.80
2008,07,02,10,21,21.80
2008,07,02,10,22,21.80
2008,07,02,10,23,21.90
2008,07,02,10,24,21.90
2008,07,02,10,25,22.00
2008,07,02,10,26,22.10
2008,07,02,10,27,22.10
2008,07,02,10,28,22.20
2008,07,02,10,29,22.30
2008,07,02,10,30,22.50
2008,07,02,10,31,22.60
2008,07,02,10,32,22.70
2008,07,02,10,33,22.80
2008,07,02,10,34,22.90
2008,07,02,10,35,22.90
2008,07,02,10,36,22.90
2008,07,02,10,37,23.00
2008,07,02,10,38,23.00
2008,07,02,10,39,23.00
2008,07,02,10,40,22.90
2008,07,02,10,41,22.80
2008,07,02,10,42,22.70
2008,07,02,10,43,22.50
2008,07,02,10,44,22.40
2008,07,02,10,45,22.30
2008,07,02,10,46,22.30
2008,07,02,10,47,22.30
2008,07,02,10,48,22.30
2008,07,02,10,49,22.40
2008,07,02,10,50,22.40
2008,07,02,10,51,22.50
2008,07,02,10,52,22.60
2008,07,02,10,53,22.60
2008,07,02,10,54,22.70
2008,07,02,10,55,22.70
2008,07,02,10,56,22.70
2008,07,02,10,57,22.70
2008,07,02,10,58,22.70
2008,07,02,10,59,22.70
2008,07,02,11,00,22.60
2008,07,02,11,01,22.50
2008,07,02,11,02,22.40
2008,07,02,11,03,22.30
2008,07,02,11,04,22.30
2008,07,02,11,05,22.20
2008,07,02,11,06,22.20
2008,07,02,11,07,22.30
2008,07,02,11,08,22.30
2008,07,02,11,09,22.30
2008,07,02,11,10,22.40
2008,07,02,11,11,22.50
2008,07,02,11,12,22.60
2008,07,02,11,13,22.70
2008,07,02,11,14,22.80
2008,07,02,11,15,22.90
2008,07,02,11,16,23.00
2008,07,02,11,17,23.10
2008,07,02,11,18,23.20
2008,07,02,11,19,23.30
2008,07,02,11,20,23.30
2008,07,02,11,21,23.30
2008,07,02,11,22,23.30
2008,07,02,11,23,23.30
2008,07,02,11,24,23.40
2008,07,02,11,25,23.40
2008,07,02,11,26,23.40
2008,07,02,11,27,23.40
2008,07,02,11,28,23.30
2008,07,02,11,29,23.30
2008,07,02,11,30,23.20
2008,07,02,11,31,23.10
2008,07,02,11,32,23.10
2008,07,02,11,33,23.10
2008,07,02,11,34,23.00
2008,07,02,11,35,22.90
2008,07,02,11,36,22.80
2008,07,02,11,37,22.70
2008,07,02,11,38,22.60
2008,07,02,11,39,22.50
2008,07,02,11,40,22.50
2008,07,02,11,41,22.50
2008,07,02,11,42,22.50
2008,07,02,11,43,22.60
2008,07,02,11,44,22.70
2008,07,02,11,45,22.90
2008,07,02,11,46,23.10
2008,07,02,11,47,23.20
2008,07,02,11,48,23.40
2008,07,02,11,49,23.50
2008,07,02,11,50,23.60
2008,07,02,11,51,23.80
2008,07,02,11,52,23.90
2008,07,02,11,53,24.00
2008,07,02,11,54,24.10
2008,07,02,11,55,24.20
2008,07,02,11,56,24.20
2008,07,02,11,57,24.10
2008,07,02,11,58,24.10
2008,07,02,11,59,24.00
2008,07,02,12,00,24.00
2008,07,02,12,01,24.10
2008,07,02,12,02,24.10
2008,07,02,12,03,24.10
2008,07,02,12,04,24.20
2008,07,02,12,05,24.30
2008,07,02,12,06,24.40
2008,07,02,12,07,24.40
2008,07,02,12,08,24.50
2008,07,02,12,09,24.60
2008,07,02,12,10,24.60
2008,07,02,12,11,24.70
2008,07,02,12,12,24.80
2008,07,02,12,13,24.80
2008,07,02,12,14,24.80
2008,07,02,12,15,24.70
2008,07,02,12,16,24.70
2008,07,02,12,17,24.60
2008,07,02,12,18,24.40
2008,07,02,12,19,24.40
2008,07,02,12,20,24.40
2008,07,02,12,21,24.40
2008,07,02,12,22,24.50
2008,07,02,12,23,24.50
2008,07,02,12,24,24.40
2008,07,02,12,25,24.40
2008,07,02,12,26,24.50
2008,07,02,12,27,24.50
2008,07,02,12,28,24.50
2008,07,02,12,29,24.40
2008,07,02,12,30,24.40
2008,07,02,12,31,24.40
2008,07,02,12,32,24.40
2008,07,02,12,33,24.40
2008,07,02,12,34,24.50
2008,07,02,12,35,24.50
2008,07,02,12,36,24.60
2008,07,02,12,37,24.70
2008,07,02,12,38,24.80
2008,07,02,12,39,24.90
2008,07,02,12,40,25.00
2008,07,02,12,41,25.10
2008,07,02,12,42,25.20
2008,07,02,12,43,25.30
2008,07,02,12,44,25.20
2008,07,02,12,45,25.30
2008,07,02,12,46,25.40
2008,07,02,12,47,25.40
2008,07,02,12,48,25.40
2008,07,02,12,49,25.40
2008,07,02,12,50,25.40
2008,07,02,12,51,25.40
2008,07,02,12,52,25.30
2008,07,02,12,53,25.30
2008,07,02,12,54,25.30
2008,07,02,12,55,25.30
2008,07,02,12,56,25.40
2008,07,02,12,57,25.50
2008,07,02,12,58,25.60
2008,07,02,12,59,25.50
2008,07,02,13,00,25.50
2008,07,02,13,01,25.50
2008,07,02,13,02,25.50
2008,07,02,13,03,25.40
2008,07,02,13,04,25.30
2008,07,02,13,05,25.10
2008,07,02,13,06,24.90
2008,07,02,13,07,24.80
2008,07,02,13,08,24.70
2008,07,02,13,09,24.60
2008,07,02,13,10,24.60
2008,07,02,13,11,24.60
2008,07,02,13,12,24.60
2008,07,02,13,13,24.70
2008,07,02,13,14,24.70
2008,07,02,13,15,24.80
2008,07,02,13,16,24.80
2008,07,02,13,17,24.90
2008,07,02,13,18,24.90
2008,07,02,13,19,24.90
2008,07,02,13,20,25.00
2008,07,02,13,21,25.00
2008,07,02,13,22,25.10
2008,07,02,13,23,25.20
2008,07,02,13,24,25.20
2008,07,02,13,25,25.20
2008,07,02,13,26,25.20
2008,07,02,13,27,25.20
2008,07,02,13,28,25.10
2008,07,02,13,29,25.10
2008,07,02,13,30,25.10
2008,07,02,13,31,25.10
2008,07,02,13,32,25.00
2008,07,02,13,33,25.00
2008,07,02,13,34,25.00
2008,07,02,13,35,25.00
2008,07,02,13,36,25.10
2008,07,02,13,37,25.10
2008,07,02,13,38,25.10
2008,07,02,13,39,25.20
2008,07,02,13,40,25.20
2008,07,02,13,41,25.30
2008,07,02,13,42,25.40
2008,07,02,13,43,25.30
2008,07,02,13,44,25.30
2008,07,02,13,45,25.30
2008,07,02,13,46,25.30
2008,07,02,13,47,25.40
2008,07,02,13,48,25.40
2008,07,02,13,49,25.60
2008,07,02,13,50,25.70
2008,07,02,13,51,25.90
2008,07,02,13,52,25.90
2008,07,02,13,53,26.10
2008,07,02,13,54,26.30
2008,07,02,13,55,26.30
2008,07,02,13,56,26.30
2008,07,02,13,57,26.30
2008,07,02,13,58,26.20
2008,07,02,13,59,26.10
2008,07,02,14,00,25.90
2008,07,02,14,01,25.80
2008,07,02,14,02,25.60
2008,07,02,14,03,25.50
2008,07,02,14,04,25.30
2008,07,02,14,05,25.10
2008,07,02,14,06,25.10
2008,07,02,14,07,25.10
2008,07,02,14,08,25.20
2008,07,02,14,09,25.20
2008,07,02,14,10,25.40
2008,07,02,14,11,25.50
2008,07,02,14,12,25.70
2008,07,02,14,13,25.80
2008,07,02,14,14,25.80
2008,07,02,14,15,25.80
2008,07,02,14,16,25.70
2008,07,02,14,17,25.70
2008,07,02,14,18,25.80
2008,07,02,14,19,25.80
2008,07,02,14,20,25.90
2008,07,02,14,21,26.00
2008,07,02,14,22,26.10
2008,07,02,14,23,26.10
2008,07,02,14,24,26.00
2008,07,02,14,25,26.00
2008,07,02,14,26,25.90
2008,07,02,14,27,25.90
2008,07,02,14,28,25.80
2008,07,02,14,29,25.70
2008,07,02,14,30,25.60
2008,07,02,14,31,25.50
2008,07,02,14,32,25.50
2008,07,02,14,33,25.50
2008,07,02,14,34,25.50
2008,07,02,14,35,25.60
2008,07,02,14,36,25.60
2008,07,02,14,37,25.60
2008,07,02,14,38,25.60
2008,07,02,14,39,25.60
2008,07,02,14,40,25.60
2008,07,02,14,41,25.50
2008,07,02,14,42,25.50
2008,07,02,14,43,25.40
2008,07,02,14,44,25.40
2008,07,02,14,45,25.40
2008,07,02,14,46,25.40
2008,07,02,14,47,25.40
2008,07,02,14,48,25.40
2008,07,02,14,49,25.50
2008,07,02,14,50,25.50
2008,07,02,14,51,25.60
2008,07,02,14,52,25.60
2008,07,02,14,53,25.60
2008,07,02,14,54,25.60
2008,07,02,14,55,25.60
2008,07,02,14,56,25.60
2008,07,02,14,57,25.60
2008,07,02,14,58,25.60
2008,07,02,14,59,25.60
2008,07,02,15,00,25.60
2008,07,02,15,01,25.60
2008,07,02,15,02,25.70
2008,07,02,15,03,25.70
2008,07,02,15,04,25.80
2008,07,02,15,05,25.80
2008,07,02,15,06,25.90
2008,07,02,15,07,25.90
2008,07,02,15,08,26.00
2008,07,02,15,09,26.10
2008,07,02,15,10,26.20
2008,07,02,15,11,26.20
2008,07,02,15,12,26.20
2008,07,02,15,13,26.30
2008,07,02,15,14,26.30
2008,07,02,15,15,26.40
2008,07,02,15,16,26.40
2008,07,02,15,17,26.50
2008,07,02,15,18,26.60
2008,07,02,15,19,26.60
2008,07,02,15,20,26.50
2008,07,02,15,21,26.40
2008,07,02,15,22,26.30
2008,07,02,15,23,26.30
2008,07,02,15,24,26.30
2008,07,02,15,25,26.30
2008,07,02,15,26,26.30
2008,07,02,15,27,26.30
2008,07,02,15,28,26.40
2008,07,02,15,29,26.40
2008,07,02,15,30,26.50
2008,07,02,15,31,26.60
2008,07,02,15,32,26.60
2008,07,02,15,33,26.70
2008,07,02,15,34,26.70
2008,07,02,15,35,26.70
2008,07,02,15,36,26.70
2008,07,02,15,37,26.70
2008,07,02,15,38,26.70
2008,07,02,15,39,26.70
2008,07,02,15,40,26.60
2008,07,02,15,41,26.50
2008,07,02,15,42,26.50
2008,07,02,15,43,26.40
2008,07,02,15,44,26.30
2008,07,02,15,45,26.30
2008,07,02,15,46,26.30
2008,07,02,15,47,26.30
2008,07,02,15,48,26.30
2008,07,02,15,49,26.30
2008,07,02,15,50,26.30
2008,07,02,15,51,26.30
2008,07,02,15,52,26.20
2008,07,02,15,53,26.20
2008,07,02,15,54,26.20
2008,07,02,15,55,26.20
2008,07,02,15,56,26.20
2008,07,02,15,57,26.10
2008,07,02,15,58,26.10
2008,07,02,15,59,26.10
2008,07,02,16,00,26.10
2008,07,02,16,01,26.10
2008,07,02,16,02,26.10
2008,07,02,16,03,26.00
2008,07,02,16,04,25.90
2008,07,02,16,05,26.00
2008,07,02,16,06,26.00
2008,07,02,16,07,26.10
2008,07,02,16,08,26.10
2008,07,02,16,09,26.00
2008,07,02,16,10,25.90
2008,07,02,16,11,25.80
2008,07,02,16,12,25.80
2008,07,02,16,13,25.80
2008,07,02,16,14,25.80
2008,07,02,16,15,25.80
2008,07,02,16,16,25.90
2008,07,02,16,17,25.90
2008,07,02,16,18,25.90
2008,07,02,16,19,25.90
2008,07,02,16,20,25.90
2008,07,02,16,21,25.90
2008,07,02,16,22,26.00
2008,07,02,16,23,26.00
2008,07,02,16,24,26.00
2008,07,02,16,25,26.00
2008,07,02,16,26,26.00
2008,07,02,16,27,26.10
2008,07,02,16,28,26.10
2008,07,02,16,29,26.10
2008,07,02,16,30,26.10
2008,07,02,16,31,26.10
2008,07,02,16,32,26.20
2008,07,02,16,33,26.20
2008,07,02,16,34,26.30
2008,07,02,16,35,26.30
2008,07,02,16,36,26.40
2008,07,02,16,37,26.50
2008,07,02,16,38,26.50
2008,07,02,16,39,26.40
2008,07,02,16,40,26.40
2008,07,02,16,41,26.40
2008,07,02,16,42,26.40
2008,07,02,16,43,26.40
2008,07,02,16,44,26.40
2008,07,02,16,45,26.40
2008,07,02,16,46,26.40
2008,07,02,16,47,26.40
2008,07,02,16,48,26.40
2008,07,02,16,49,26.50
2008,07,02,16,50,26.50
2008,07,02,16,51,26.50
2008,07,02,16,52,26.50
2008,07,02,16,53,26.50
2008,07,02,16,54,26.60
2008,07,02,16,55,26.60
2008,07,02,16,56,26.60
2008,07,02,16,57,26.70
2008,07,02,16,58,26.70
2008,07,02,16,59,26.60
2008,07,02,17,00,26.50
2008,07,02,17,01,26.50
2008,07,02,17,02,26.40
2008,07,02,17,03,26.40
2008,07,02,17,04,26.50
2008,07,02,17,05,26.50
2008,07,02,17,06,26.60
2008,07,02,17,07,26.60
2008,07,02,17,08,26.70
2008,07,02,17,09,26.80
2008,07,02,17,10,26.90
2008,07,02,17,11,26.90
2008,07,02,17,12,26.90
2008,07,02,17,13,26.90
2008,07,02,17,14,26.90
2008,07,02,17,15,26.90
2008,07,02,17,16,27.00
2008,07,02,17,17,27.00
2008,07,02,17,18,27.10
2008,07,02,17,19,27.10